Wind_Speed
5 6 7 8 9 9 10 11 11 11 11 12 12 13 12 10 12 12 12 13 13 14
5 6 7 8 9 9 10 11 12 12 12 12 11 11 10 8 8 7 9 10 12 13
4 4 5 5 7 9 10 11 12 12 12 12 12 12 12 11 9 6 7 8 10 12
4 4 5 5 6 7 7 8 9 10 11 11 11 11 9 10 11 11 10 11 12 12
5 4 4 3 4 6 7 8 9 9 8 9 10 11 10 10 9 10 11 12 13 14
7 6 5 4 5 5 6 7 7 8 8 8 9 10 9 8 8 8 10 11 13 14
9 8 6 5 4 5 6 6 6 7 7 8 8 9 8 7 7 8 8 9 11 13
11 10 7 5 4 4 3 4 4 4 5 6 6 8 8 6 6 6 6 6 7 9
13 11 9 7 5 4 3 3 2 2 2 3 4 6 7 6 5 6 6 7 8 8
15 13 11 9 6 5 4 3 3 2 1 1 3 6 6 7 5 6 6 7 8 8
17 15 12 9 7 6 5 5 5 4 3 2 2 3 6 7 5 5 6 6 7 7
21 17 12 10 9 7 6 6 5 5 5 4 3 1 3 6 6 7 7 8 7 8
23 21 18 13 11 8 7 6 5 6 6 6 5 5 3 5 7 8 9 9 8 8
24 22 18 14 11 8 7 6 5 5 6 5 5 5 6 6 7 8 9 11 10 8
Wind_Direction
10 3 358 353 353 352 349 349 351 355 2 3 0 355 351 350 346 344 339 340 343 335
359 356 352 348 346 345 343 340 345 350 355 355 352 354 359 5 359 357 4 7 12 12
322 328 332 336 336 338 336 339 340 342 346 347 349 351 346 339 357 9 18 11 23 33
276 296 309 317 323 326 331 337 340 342 343 345 347 349 350 351 358 3 9 12 12 22
253 273 279 292 318 330 333 340 344 348 349 349 351 356 358 360 5 14 17 19 20 19
229 244 257 278 305 321 329 333 341 347 350 350 354 360 6 8 11 17 24 25 24 19
219 228 241 257 285 310 324 330 336 347 353 359 3 8 10 15 21 28 31 30 30 26
216 221 229 237 253 276 297 312 325 338 356 10 19 16 11 12 20 25 27 32 32 29
216 215 216 222 236 260 278 286 299 319 349 3 17 15 13 16 12 14 16 10 8 7
213 215 218 217 224 232 221 236 238 241 267 343 15 16 13 17 15 16 8 0 357 359
207 211 211 211 221 229 226 211 220 233 243 265 309 355 5 3 2 353 344 342 341 339
205 207 210 216 217 217 222 225 224 230 239 247 256 291 316 347 344 339 334 334 333 336
204 205 211 209 209 212 215 225 229 237 235 240 258 265 319 329 323 331 331 327 332 338
202 206 210 208 207 205 206 213 220 232 234 240 249 267 279 309 310 319 318 319 327 332
Height
802 800 798 796 793 791 788 785 782 777 774 771 769 767 763 761 760 760 758 755 751 748
802 800 799 797 795 792 790 788 784 780 776 774 771 768 764 761 759 758 754 751 749 746
802 800 798 796 794 792 790 787 784 781 778 775 773 770 768 765 761 756 752 751 746 742
799 798 797 794 792 790 787 784 782 780 777 775 773 770 767 765 762 758 756 753 750 745
795 794 793 792 790 788 787 785 782 779 777 775 772 769 766 764 761 759 757 754 751 748
792 792 792 791 789 788 787 784 782 779 777 774 772 769 766 764 762 760 757 755 752 750
788 789 789 788 788 787 786 784 782 779 777 775 772 769 767 764 762 759 757 756 754 752
783 783 784 785 784 783 782 781 780 779 777 775 773 770 768 765 763 760 757 755 753 752
780 780 781 781 781 781 780 780 779 778 777 775 773 771 768 766 764 762 760 757 755 753
776 777 778 778 778 777 776 776 776 776 775 775 774 772 769 766 765 763 761 759 757 754
769 772 774 775 775 776 775 773 773 774 773 773 772 772 770 767 765 764 762 760 758 755
762 767 770 771 772 772 772 772 771 771 771 771 771 770 770 768 766 764 763 761 759 756
756 760 764 765 767 768 769 769 769 769 769 768 769 769 769 768 766 763 762 760 757 755
751 756 759 762 763 765 766 766 766 767 767 767 766 766 766 766 765 763 762 760 757 754